sat.trackr.live / text

‹ back to catalog

STARLINK-35235

NORAD 65682 · 2025-212G

PAYLOAD ACTIVE UNKNOWN

§ Identity

Operator
Country
US
Launch date
2025-09-21
Launch site
AFETR
Launch vehicle
Mass (kg)
RCS (m²)

Purposes: comms

External: N2YO · Heavens-Above · Gunter

§ Orbital elements

Epoch: 2026-05-24T23:51:58.893696Z

Period
93.85 min
Inclination
53.1595°
Eccentricity
0.0000365
Mean motion
15.34411241 rev/d
Perigee alt
462.4 km
Apogee alt
462.9 km
Semi-major
6,840.8 km
B*
1.1079e-3
RAAN
350.0057°
Arg perigee
202.6551°
Mean anomaly
157.4435°
Rev number
3,889

§ Raw data

STARLINK-352351 65682U 25212G   26144.99443164  .00037254  00000+0  11079-2 0  99962 65682  53.1595 350.0057 0000365 202.6551 157.4435 15.34411241 38895

JSON: /api/v1/satellites/65682 · /tle

For live sub-satellite position, see the globe view (requires WebGL).

§ Visibility from observer

Set your observer location to see the next 7 days of passes ≥ 10°. The values pass through the URL so the page stays shareable.

No JS? Fill the form by hand. The geolocation button needs JavaScript.